User: anonymous   Login
Location: Hradec Kralove
(50.2170°N, 15.8330°E)
Time: 04:56:05
(UTC+01:00)
Language:

MOZHAYETS 4 - Orbit

View from above orbital plane
View from above orbital plane
View from above satellite
View from above satellite

Ground track
Ground track

The orbit data is extracted from the following two-line orbital elements,

1 27939U 03042A   24057.84286389  .00002114  00000-0  36557-3 0  9992
2 27939  98.2732 212.4259 0013041  55.2592  76.9581 14.69403377 91926
Epoch (UTC): 26 February 2024 20:13:43
Eccentricity: 0.0013041
inclination: 98.2732°
perigee height: 654 km
apogee height: 672 km
right ascension of ascending node: 212.4259°
argument of perigee: 55.2592°
revolutions per day: 14.69403377
mean anomaly at epoch: 76.9581°
orbit number at epoch: 9192

The dashed part of the orbit path shows where the satellite is in the earth's shadow,  

DLR